Skip Page Navigation
NASA JPL Caltech
NASA Logo - Jet Propulsion Laboratory + View the NASA Portal
+ Center for Near-Earth Object Studies
JPL Home Earth Solar System Stars & Galaxies Technology
JPL Solar System Dynamics
BODIES ORBITS EPHEMERIDES TOOLS PHYSICAL DATA DISCOVERY FAQ SITE MAP

Significant website upgrade scheduled for September 27. More details available here.

JPL Small-Body Database Browser
Search: [ help ]  
24475 (2000 VN2)
Classification: Amor [NEO]          SPK-ID: 2024475
Ephemeris | Orbit Diagram | Orbital Elements | Mission Design | Physical Parameters | Discovery Circumstances | Close-Approach Data ]

[ show orbit diagram ]
Orbital Elements at Epoch 2459396.5 (2021-Jul-01.0) TDB
Reference: JPL 180 (heliocentric ecliptic J2000)
 Element Value Uncertainty (1-sigma)   Units 
e .4421511599626573 2.9854e-08  
a 1.974397365591679 7.244e-09 au
q 1.101415280168103 5.9806e-08 au
i 14.63922022272241 5.9011e-06 deg
node 76.47424762441926 1.4553e-05 deg
peri 32.63461448695986 1.654e-05 deg
M 146.3421763628632 8.9851e-06 deg
tp 2458984.575825652794
(2020-May-15.07582565)
2.3255e-05 TDB
period 1013.328532147112
2.77
5.5768e-06
1.527e-08
d
yr
n .3552648411440725 1.9552e-09 deg/d
Q 2.847379451015255 1.0447e-08 au
  Orbit Determination Parameters
   # obs. used (total)      768  
   data-arc span      6873 days (18.82 yr)  
   first obs. used      2000-11-01  
   last obs. used      2019-08-27  
   planetary ephem.      DE441  
   SB-pert. ephem.      SB441-N16  
   condition code      0  
   norm. resid. RMS      .38586  
   source      ORB  
   producer      Otto Matic  
   solution date      2021-Apr-13 04:43:21  

Additional Information
 Earth MOID = .150358 au 
 Jupiter MOID = 2.37416 au 
 T_jup = 3.705 
[ show covariance matrix ]

Ephemeris | Orbit Diagram | Orbital Elements | Mission Design | Physical Parameters | Discovery Circumstances | Close-Approach Data ]

Physical Parameter Table
Parameter Symbol Value Units Sigma Reference Notes
absolute magnitude H 16.3   n/a MPO244396  
SMASSII spectral type spec_B Sa   n/a Binzel et al. (2004) Icarus 170, 259-294  

24475 (2000 VN2)          Discovered 2000-Nov-01 by LINEAR at Socorro
Reference: 20010408/Numbers.arcLast Updated: 2004-04-19

[ show close-approach data ]
Ephemeris | Orbit Diagram | Orbital Elements | Mission Design | Physical Parameters | Discovery Circumstances | Close-Approach Data ]
ABOUT SSD CREDITS/AWARDS PRIVACY/COPYRIGHT GLOSSARY LINKS
FirstGov 2021-Sep-25 10:36 UT
(server date/time)  
NASA Home Page
Site Manager:   Ryan S. Park
Webmaster  Alan B. Chamberlin